COSMOS 2204 (GLONASS)

Satellite information

Favourite Embed

Satellite Type and Status

PAYLOADIN ORBIT

Key statistics

Satellite COSMOS 2204 (GLONASS) at a glance.

Uptime

11975

Days in orbit

Revolutions

≈ 2.1

Per day

Orbit

MEO

Medium Earth Orbit

Inclination

64.4

Latest

Satellite identification and parameters

Extended collection of information and parameters for COSMOS 2204 (GLONASS).

Object identification

Identified? True

Debris? False

Object name: COSMOS 2204 (GLONASS)

International designator: 1992-047B

Object number (NORAD): 22057

Object ID (CCSDS): 22057

Country: COMMONWEALTH OF INDEPENDENT STATES (CIS)

Current information (Y/N): Y

RCS size: LARGE

Orbital parameters

Period: 675.729 minutes

Inclination: 64.4223 deg

SMA: 25507.921 km

Apoapsis: 19169.744 km

Periapsis: 19089.828 km

RAAN: 316.488 deg

Eccentricy: 0.0015665

Argument of periapsis: 346.5517 deg

Mean anomaly: 199.1141 deg

Mean motion: 2.13103298 rev/day

Mean motion (dot): -0.00000045 rev/day2

B* drag term: 0.0 1/REarth

Two-line elements (TLE)

Creation date: May 10, 2025, 5:27 p.m.

Reference frame: TEME

Reference center: EARTH

Epoch: May 10, 2025, 3:47 a.m. UTC

TLE line 0: 0 COSMOS 2204 (GLONASS)

TLE line 1: 1 22057U 92047B 25130.15776510 -.00000045 00000-0 00000-0 0 9991

TLE line 2: 2 22057 64.4223 316.4880 0015665 346.5517 199.1141 2.13103298254942

Live tracking on map

Real-time ground track for satellite COSMOS 2204 (GLONASS).

In-orbit conjunctions

There are no conjunctions computed for COSMOS 2204 (GLONASS), at the moment. Check back to stay up to date, as we update our databases every day.

Go to all conjunctions

Associated space launch

GLONASS navigation satellites

COSMOS 2204 (GLONASS) was lifted into orbit during the mission ‘Proton | Uragan 48 to 50’, on board a Proton space rocket.

The launch took place on July 30, 1992, 1:59 a.m. from 81/23 (81L).

For more information about the launch, click the button.

Launch to space Proton | Uragan 48 to 50
Proton | Uragan 48 to 50

Agency: N/A

Status: Launch Successful

Launch date: July 30, 1992, 1:59 a.m. UTC

Rocket: Proton

Launch pad: 81/23 (81L)

Location: Baikonur Cosmodrome, Republic of Kazakhstan

...

Latest news about this satellite

There are no fresh news available about this satellite. Check back as we update our databases every day.


Newsletter sign-up

Weekly statistics, charts and insights to help you stay on top of the space industry.